Location: Nashville
(36.1660°N, 86.7840°W)
Time: 19:12:58
(UTC-06:00)

Transit 2A - Visible Passes

Search period start: 22 January 2022 00:00
Search period end: 01 February 2022 00:00
Orbit: 591 x 967 km, 66.7° (Epoch: 22 January)

Date Brightness Start Highest point End Pass type
(mag) Time Alt. Az. Time Alt. Az. Time Alt. Az.
23 Jan 8.9 20:14:29 10° NNW 20:14:31 10° NNW 20:14:31 10° NNW visible
24 Jan 8.4 19:40:27 10° NNW 19:41:37 15° N 19:41:37 15° N visible
25 Jan 7.9 19:06:32 10° N 19:08:49 19° NNE 19:08:49 19° NNE visible
26 Jan 7.7 18:32:47 10° N 18:36:07 18° NE 18:36:07 18° NE visible
26 Jan 8.3 20:14:56 10° NNW 20:16:39 19° NW 20:16:39 19° NW visible
27 Jan 7.9 17:59:21 10° NNE 18:02:18 14° NE 18:03:34 13° NE visible
27 Jan 7.3 19:40:40 10° NNW 19:44:07 36° NNW 19:44:07 36° NNW visible
28 Jan 6.3 19:06:30 10° NNW 19:11:46 53° NE 19:11:46 53° NE visible
28 Jan 8.9 20:51:07 10° WNW 20:52:19 14° WNW 20:52:19 14° WNW visible
29 Jan 6.7 18:32:26 10° NNW 18:37:57 38° NE 18:39:39 31° E visible
29 Jan 8.0 20:16:07 10° NW 20:20:14 27° W 20:20:14 27° W visible
30 Jan 7.1 17:58:30 10° N 18:03:30 27° NE 18:07:55 11° ESE visible
30 Jan 7.2 19:41:27 10° NW 19:46:54 42° WSW 19:48:31 33° SSW visible
31 Jan 6.5 19:07:00 10° NNW 19:12:47 64° WSW 19:17:21 14° SSE visible
